Regional Weather Roundup
Issued by NWS

Home | Current Version | Previous Version | Graphics & Text | Print | Product List | Glossary On
Versions: 1 2 3 4 5 6 7 8 9 10 11 12 13 14 15 16 17 18 19 20 21 22 23 24 25 26 27 28 29 30 31 32 33 34 35 36 37 38 39 40 41 42 43 44 45 46 47 48 49 50
000
ASUS43 KLOT 272012
RWRIL

ILLINOIS REGIONAL WEATHER ROUNDUP
NATIONAL WEATHER SERVICE CHICAGO/ROMEOVILLE IL
300 PM CDT MON JUL 27 2015

NOTE: "FAIR" INDICATES FEW OR NO CLOUDS BELOW 12,000 FEET WITH NO
SIGNIFICANT WEATHER AND/OR OBSTRUCTIONS TO VISIBILITY.

* THESE STATIONS ARE NOT UNDER NWS QUALITY CONTROL. THEY ALSO MAY NOT
  REPORT WEATHER SUCH AS PRECIPITATION OR FOG.

ILZ001-002-007-009-015-016-024-272100-
NORTHWEST ILLINOIS

CITY           SKY/WX    TMP DP  RH WIND       PRES   REMARKS
MOLINE         PTSUNNY   86  70  58 E8        29.98R HX  90
STERLING*      MOSUNNY   84  72  65 E6        29.98S HX  89
SAVANNA*       PTSUNNY   86  69  56 E8        29.98F HX  91
$$

ILZ003-004-008-010-011-017-018-272100-
NORTH CENTRAL ILLINOIS

CITY           SKY/WX    TMP DP  RH WIND       PRES   REMARKS
ROCKFORD       PTSUNNY   89  68  49 SE8       30.01S HX  93
FREEPORT*      MOSUNNY   85  68  57 SE3       30.02F HX  88
ROCHELLE*      PTSUNNY   84  70  63 SE7       30.01S HX  88
DE KALB*       MOSUNNY   86  67  54 SE7       30.01S HX  88
PERU*          MOSUNNY   87  67  50 E8        29.99S HX  89
$$

ILZ005-006-012>014-019>023-272100-
NORTHEAST ILLINOIS

CITY           SKY/WX    TMP DP  RH WIND       PRES   REMARKS
CHICAGO-OHARE  MOSUNNY   87  59  38 E14G21    29.99F HX  86
CHICAGO-MIDWAY MOSUNNY   89  61  38 E12       29.99F HX  89
AURORA         MOSUNNY   89  61  38 SE6       30.00R HX  89
LANSING*       SUNNY     88  51  27 E15       30.00S HX  85
JOLIET*        MOSUNNY   89  64  42 E12       29.99S HX  90
WAUKEGAN       SUNNY     81  63  54 E9        30.02S HX  82
DUPAGE AIRPORT MOSUNNY   89  61  38 VRB7      29.99S HX  89
KANKAKEE*      MOSUNNY   86  72  64 E10       29.99S HX  92
WHEELING       SUNNY     86  62  44 E9        30.02S HX  86
MORRIS*        MOSUNNY   85  70  62 E8        29.98S HX  89
ROMEOVILLE*    MOSUNNY   89  55  31 SE9       29.99F HX  87
NORTHERLY ISL    N/A     80  68  66 N6          N/A  HX  83
$$

LMZ740>746-272100-
SOUTHERN LAKE MICHIGAN

STATION/POSITION SKY/WX   TEMP    WIND        PRES    VSBY  WAVE
                          AIR SEA DIR/SP/G                  HT/PER
                          (F)     (DEG/KT/KT) (MB)    (MI)  (FT/S)
HARRISON CRIB              74      40/  8/  9   N/A
BURNHAM HARBOR             81      10/  5/  9   N/A
CALUMET HARBOR             79      30/  7/ 11   N/A
BURNS HARBOR               76      30/ 12/ 13 1016.3S
MICHIGAN CITY              84      80/  9/ 13   N/A
MICHIGAN CITY 6N           76 76   40/ 10/ 12   N/A           1
ST. JOSEPH                 75 76   20/ 10/ 10   N/A           1
$$

ILZ025>027-034>036-040-047-049-050-058-095>099-272100-
WEST-CENTRAL ILLINOIS

CITY           SKY/WX    TMP DP  RH WIND       PRES   REMARKS
QUINCY         MOSUNNY   88  74  63 SE6       29.94F HX  96
GALESBURG*     MOSUNNY   83  73  72 CALM      29.98S HX  88
MACOMB*        PTSUNNY   86  75  69 E7        29.98F HX  95
JACKSONVILLE*  MOSUNNY   88  76  67 E5        29.94F HX  99
PITTSFIELD*    MOSUNNY   89  76  66 E5        29.95F HX  99
$$

ILZ028>032-037-038-041>044-048-051>054-059>061-272100-
CENTRAL ILLINOIS

CITY           SKY/WX    TMP DP  RH WIND       PRES   REMARKS
PONTIAC        MOSUNNY   85  76  72 E6        29.99S HX  95
BLOOMINGTON    PTSUNNY   85  74  69 E7        29.99F HX  92
DECATUR        MOSUNNY   87  73  62 E8        29.96F HX  94
PEORIA         MOSUNNY   86  71  60 E3        29.97F HX  91
LACON*         MOSUNNY   84  72  65 E8        29.97S HX  89
LINCOLN*       MOSUNNY   88  74  62 E7        29.95F HX  96
SPRINGFIELD    MOSUNNY   91  74  57 NE8       29.94F HX 100
TAYLORVILLE    PTSUNNY   86  73  66 CALM      29.95S HX  93
$$

ILZ033-039-045-046-055>057-062-063-272100-
EAST-CENTRAL ILLINOIS

CITY           SKY/WX    TMP DP  RH WIND       PRES   REMARKS
CHAMPAIGN      MOSUNNY   85  72  65 VRB3      29.98F HX  91
DANVILLE*      MOSUNNY   82  74  74 CALM      29.96R HX  88
RANTOUL*       PTSUNNY   84  73  69 SE5       29.98S HX  91
MATTOON        PTSUNNY   86  72  62 E5        29.95S HX  92
PARIS*         MOSUNNY   84  74  71 NE3       29.98S HX  91
$$

ILZ079-100>102-272100-
SOUTHWEST ILLINOIS

CITY           SKY/WX    TMP DP  RH WIND       PRES   REMARKS
ALTON          PTSUNNY   88  79  74 CALM      29.94S HX 102
BELLEVILLE     SUNNY     90  81  74 VRB6      29.91F THUNDER HX 108
CAHOKIA*       MOSUNNY   93  78  61 E6        29.91S HX 108
SPARTA*        PTSUNNY   91  76  62 SW6       29.93S HX 103
$$

ILZ064>066-069>071-074>076-080>082-084>086-088>090-092>094-272100-
SOUTH-CENTRAL ILLINOIS

CITY           SKY/WX    TMP DP  RH WIND       PRES   REMARKS
CARBONDALE     PTSUNNY   91  80  70 VRB3      29.92F HX 109
CAIRO*         MOSUNNY   91  79  68 SW5       29.93S HX 107
EFFINGHAM*     MOSUNNY   89  71  55 SE5       29.96S HX  95
MARION         MOSUNNY   91  79  66 S7        29.94F HX 107
MT. VERNON     MOSUNNY   91  75  59 S6        29.94F HX 102
CENTRALIA*     PTSUNNY   89  76  63 E3        29.94F HX 100
SALEM*         PTSUNNY   90  74  60 CALM      29.95S HX  99
METROPOLIS*    MOSUNNY   90  81  74 S5        29.94S HX 108
$$

ILZ067-068-072-073-078-083-087-091-272100-
SOUTHEAST ILLINOIS

CITY           SKY/WX    TMP DP  RH WIND       PRES   REMARKS
LAWRENCEVILLE  MOSUNNY   88  75  65 CALM      29.95S HX  97
FLORA*         SUNNY     89  72  58 SW5       29.95S HX  96
FAIRFIELD*     PTSUNNY   87  77  70 CALM      29.93F HX  99
HARRISBURG*    MOSUNNY   90  78  68 CALM      29.95S HX 105
ROBINSON*      MOSUNNY   88  74  63 S3        29.95S HX  96
CARMI*         MOSUNNY   87  73  63 NE3       29.94F HX  95
$$

ABBREVIATIONS USED IN REMARKS
   TC - TEMPERATURE IN CELSIUS
  WCI - WIND CHILL INDEX
   HX - HEAT INDEX
  VSB - VISIBILITY
$$



USA.gov is the U.S. government's official web portal to all federal, state and local government web resources and services.